Hourly Data Report for March 15, 2006

TORONTO CITY
ONTARIO

43°40'00.000" N
79°24'00.000" W
112.50 m
6158355
71508
XTO

Download Data

Hourly Data (March 2006)
Hourly Data Report for March 15, 2006
TIME
LST
Temp Definition
°C
Dew Point Definition
°C
Rel Hum Definition
%
Precip. Amount Definition
mm

Wind Dir Definition
10's deg

Wind Spd Definition
km/h
Visibility Definition
km
Stn Press Definition
kPa
Hmdx Definition


Wind Chill Definition


Weather Definition


00:00 -0.1 -5.8 65   LegendMM LegendMM   99.10     LegendNANA
01:00 -0.2 -5.9 65   LegendMM LegendMM   99.12     LegendNANA
02:00 -0.3 -5.5 68   LegendMM LegendMM   99.17     LegendNANA
03:00 -0.5 -5.4 69   LegendMM LegendMM   99.18     LegendNANA
04:00 -0.5 -5.5 69   LegendMM LegendMM   99.21     LegendNANA
05:00 -0.6 -5.3 70   LegendMM LegendMM   99.25     LegendNANA
06:00 -0.5 -5.5 69   LegendMM LegendMM   99.32     LegendNANA
07:00 -0.4 -5.3 69   LegendMM LegendMM   99.36     LegendNANA
08:00 -0.3 -4.4 74   LegendMM LegendMM   99.43     LegendNANA
09:00 0.2 -4.6 70   LegendMM LegendMM   99.47     LegendNANA
10:00 2.3 -6.9 51   LegendMM LegendMM   99.53     LegendNANA
11:00 3.3 -8.2 43   LegendMM LegendMM   99.59     LegendNANA
12:00 3.3 -8.8 41   LegendMM LegendMM   99.65     LegendNANA
13:00 3.4 -7.7 44   LegendMM LegendMM   99.69     LegendNANA
14:00 3.2 -6.7 48   LegendMM LegendMM   99.74     LegendNANA
15:00 2.8 -7.3 47   LegendMM LegendMM   99.81     LegendNANA
16:00 2.6 -7.9 46   LegendMM LegendMM   99.87     LegendNANA
17:00 2.7 -8.4 44   LegendMM LegendMM   99.92     LegendNANA
18:00 2.2 -8.0 47   LegendMM LegendMM   99.99     LegendNANA
19:00 1.6 -7.7 50   LegendMM LegendMM   100.08     LegendNANA
20:00 1.3 -6.7 55   LegendMM LegendMM   100.13     LegendNANA
21:00 1.0 -6.7 56   LegendMM LegendMM   100.17     LegendNANA
22:00 0.8 -6.3 59   LegendMM LegendMM   100.22     LegendNANA
23:00 0.5 -5.8 63   LegendMM LegendMM   100.27     LegendNANA

Notes on Data Quality.

Legend

  • E = Estimated
  • M = Missing
  • NA = Not Available*
  • [empty] = Indicates an unobserved value
Date modified: